Weather Service Report


343 
ASUS43 KLOT 021310
RWRIL 

ILLINOIS REGIONAL WEATHER ROUNDUP
NATIONAL WEATHER SERVICE CHICAGO/ROMEOVILLE IL
800 AM CDT THU OCT 02 2014

NOTE: "FAIR" INDICATES FEW OR NO CLOUDS BELOW 12,000 FEET WITH NO
SIGNIFICANT WEATHER AND/OR OBSTRUCTIONS TO VISIBILITY.

* THESE STATIONS ARE NOT UNDER NWS QUALITY CONTROL. THEY ALSO MAY NOT
  REPORT WEATHER SUCH AS PRECIPITATION OR FOG.

ILZ001-002-007-009-015-016-024-021400-
NORTHWEST ILLINOIS
  
CITY           SKY/WX    TMP DP  RH WIND       PRES   REMARKS
MOLINE         PTSUNNY   60  59  96 CALM      29.82S FOG              
SAVANNA*       PTSUNNY   64  61  92 S5        29.83R FOG              
$$

ILZ003-004-008-010-011-017-018-021400-
NORTH CENTRAL ILLINOIS
  
CITY           SKY/WX    TMP DP  RH WIND       PRES   REMARKS
ROCKFORD       CLOUDY    64  60  87 SE7       29.86F                  
FREEPORT*      CLOUDY    60  59  95 CALM      29.85S FOG              
ROCHELLE*      CLOUDY    63  61  94 S5        29.85F                  
DE KALB*       CLOUDY    63  61  94 S7        29.87S FOG              
PERU*          CLOUDY    65  64  95 SE3       29.86R FOG              
$$

ILZ005-006-012>014-019>023-021400-
NORTHEAST ILLINOIS
  
CITY           SKY/WX    TMP DP  RH WIND       PRES   REMARKS
CHICAGO-OHARE  CLOUDY    64  60  87 SE8       29.87F                  
CHICAGO-MIDWAY CLOUDY    67  60  78 CALM      29.89R                  
AURORA         CLOUDY    66  62  87 SE7       29.87S FOG              
LANSING*       CLOUDY    63  59  88 S5        29.90R                  
JOLIET*        CLOUDY    65  63  91 E3        29.87F                  
WAUKEGAN       CLOUDY    62  58  86 SE6       29.86S                  
DUPAGE AIRPORT CLOUDY    66  61  84 SE8       29.87S                  
KANKAKEE*      CLOUDY    64  63  96 N3        29.88R FOG              
WHEELING       CLOUDY    64  60  87 S7        29.88S                  
MORRIS*        CLOUDY    66  65  99 CALM      29.86S FOG              
ROMEOVILLE*    CLOUDY    65  62  90 SE5       29.88S                  
NORTHERLY ISL    N/A     64  58  80 S1          N/A                   
$$

LMZ740>746-021400-
SOUTHERN LAKE MICHIGAN
  
STATION/POSITION SKY/WX   TEMP    WIND        PRES    VSBY  WAVE
                          AIR SEA DIR/SP/G                  HT/PER
                          (F)     (DEG/KT/KT) (MB)    (MI)  (FT/S)
SOUTHERN BUOY              63 62  160/ 19/ 21 1011.8F         3/ 5
WAUKEGAN HARBOR            62     160/ 13/ 15   N/A
HARRISON CRIB              64     150/  4/  5   N/A
BURNHAM HARBOR             64     140/  4/  7   N/A
CALUMET HARBOR             65     180/  6/ 10 1011.3R
MICHIGAN CITY              63     150/ 13/ 16   N/A
MICHIGAN CITY 6N           64 64  170/ 12/ 16   N/A           2/ 2
ST. JOSEPH                 63 63  140/ 10/ 14   N/A           1/ 2
$$

ILZ025>027-034>036-040-047-049-050-058-095>099-021400-
WEST-CENTRAL ILLINOIS
  
CITY           SKY/WX    TMP DP  RH WIND       PRES   REMARKS
QUINCY         CLOUDY    64  63  96 S9        29.83R                  
GALESBURG*     PTSUNNY   63  63  98 E3        29.83S FOG              
MACOMB*        FOG       62  62 100 CALM      29.86R VSB 3/4          
JACKSONVILLE*  CLOUDY    67  65  94 S9G16     29.85S                  
PITTSFIELD*    RAIN      66  64  93 SW8G18    29.86R                  
$$

ILZ028>032-037-038-041>044-048-051>054-059>061-021400-
CENTRAL ILLINOIS
  
CITY           SKY/WX    TMP DP  RH WIND       PRES   REMARKS
PONTIAC        CLOUDY    66  66 100 CALM      29.85R                  
BLOOMINGTON    PTSUNNY   66  66 100 S14         N/A                   
DECATUR        PTSUNNY   67  65  93 S13       29.87R                  
PEORIA         CLOUDY    67  63  87 S6        29.85R                  
LACON*         CLOUDY    64  63  95 CALM      29.85R FOG              
LINCOLN*       CLOUDY    66  65  94 S7        29.84R                  
SPRINGFIELD    CLOUDY    67  64  90 S8        29.85R                  
TAYLORVILLE    RAIN      64  64 100 S13G18    29.87S                  
$$

ILZ033-039-045-046-055>057-062-063-021400-
EAST-CENTRAL ILLINOIS
  
CITY           SKY/WX    TMP DP  RH WIND       PRES   REMARKS
CHAMPAIGN      CLOUDY    66  65  96 S9        29.87F                  
DANVILLE*      CLOUDY    64  64  99 S10       29.86F FOG              
RANTOUL*       CLOUDY    68  65  89 S13G18    29.87F                  
MATTOON        LGT RAIN  66  65  96 S13       29.89F                  
PARIS*         CLOUDY    64  64 100 SE10G17   29.91F                  
$$

ILZ079-100>102-021400-
SOUTHWEST ILLINOIS
  
CITY           SKY/WX    TMP DP  RH WIND       PRES   REMARKS
ALTON          RAIN      66  64  94 SE12      29.91R                  
BELLEVILLE     MOSUNNY   67  67 100 NE5       29.90R                  
CAHOKIA*       CLOUDY    68  66  93 NW8       29.91R                  
SPARTA*        CLOUDY    73  63  72 S3        29.92R                  
$$

ILZ064>066-069>071-074>076-080>082-084>086-088>090-092>094-021400-
SOUTH-CENTRAL ILLINOIS
  
CITY           SKY/WX    TMP DP  RH WIND       PRES   REMARKS
CARBONDALE     CLOUDY    71  62  73 S8        29.92S                  
CAIRO*         SUNNY     73  63  71 S7        29.93S                  
EFFINGHAM*     LGT RAIN  66  64  91 E7        29.93S                  
MARION         PTSUNNY   72  63  73 S12       29.94R                  
CENTRALIA*     CLOUDY    71  62  74 E6        29.92S                  
SALEM*         MOSUNNY   69  67  94 E5        29.93R FOG              
METROPOLIS*    SUNNY     72  63  72 S6        29.94F                  
$$

ILZ067-068-072-073-078-083-087-091-021400-
SOUTHEAST ILLINOIS
  
CITY           SKY/WX    TMP DP  RH WIND       PRES   REMARKS
LAWRENCEVILLE  CLOUDY    68  61  78 NW15      29.97R                  
FLORA*         MOSUNNY   66  62  87 E5        29.94F                  
FAIRFIELD*     CLOUDY    70  63  78 N3        29.94R                  
HARRISBURG*    SUNNY     72  62  70 S3        29.95R                  
ROBINSON*      PTSUNNY   66  64  93 NE8       29.97R                  
CARMI*         CLOUDY    72  64  78 S10       29.93F                  
$$

ABBREVIATIONS USED IN REMARKS
   TC - TEMPERATURE IN CELSIUS
  WCI - WIND CHILL INDEX
   HX - HEAT INDEX
  VSB - VISIBILITY
$$


Return to Home page


Western Regional Climate Center, wrcc@dri.edu